Huanjing Jianzai 02-05

operational
NORAD ID: 54035 Int'l Des: 2022-132 Owner: ZZWYZ Country: CN
LEOCIRCULARRETROGRADESSO

Huanjing Jianzai 02-05について

説明を読み込み中...

リアルタイム位置

3D地球を読み込み中...

次回通過

高度履歴

Altitude vs Time

uPlot chart will show altitude changes over time

軌道要素

1 54035U 22132A 26063.19269231 .00013672 00000-0 62074-3 0 9998
2 54035 97.3823 69.5711 0021668 22.2265 337.9905 15.20692612188458
Epoch: Mar 4, 2026 • Age: 17 hours

現在のステータス

高度 529.1 km
速度 7.60 km/s
衛星直下点 -67.87°S, 31.73°E
打ち上げ日 Oct 12, 2022
運用期間 3.3 years
タイプ other

技術仕様

分類 Payload
質量 510.00 kg
乾燥質量 510.00 kg
総質量 510.00 kg
長さ 1.40 m
直径 1.00 m
スパン 4.00 m
形状 Box + 2 Pan
製造者 DFHZ
バスタイプ CAST-2000
フェーズステータス In Orbit
所有者/国 ZZWYZ/CN

大規模コンステレーション

Loading constellations...